TimeHST,TemperatureF,Dew PointF,Humidity,Sea Level PressureIn,VisibilityMPH,Wind Direction,Wind SpeedMPH,Gust SpeedMPH,PrecipitationIn,Events,Conditions,WindDirDegrees,DateUTC
12:56 AM,64.9,64.9,100,29.95,10.0,Calm,Calm,-,N/A,,Clear,0,2013-05-07 10:56:00
1:28 AM,64.4,64.4,100,30.00,5.0,ENE,3.5,-,N/A,,Scattered Clouds,70,2013-05-07 11:28:00
1:56 AM,64.4,64.4,100,29.98,10.0,NE,3.5,-,N/A,,Mostly Cloudy,40,2013-05-07 11:56:00
2:56 AM,63.9,63.9,100,29.92,10.0,Calm,Calm,-,N/A,,Clear,0,2013-05-07 12:56:00
3:56 AM,63.9,63.9,100,29.93,10.0,Calm,Calm,-,N/A,,Scattered Clouds,0,2013-05-07 13:56:00
4:07 AM,64.4,64.4,100,29.98,10.0,Calm,Calm,-,N/A,,Mostly Cloudy,0,2013-05-07 14:07:00
4:40 AM,62.6,60.8,94,29.98,10.0,ENE,5.8,-,N/A,,Scattered Clouds,60,2013-05-07 14:40:00
4:56 AM,63.0,61.9,96,29.94,10.0,ENE,4.6,-,N/A,,Clear,60,2013-05-07 14:56:00
5:56 AM,63.0,61.9,96,29.95,10.0,NE,5.8,-,N/A,,Clear,40,2013-05-07 15:56:00
6:56 AM,66.9,64.9,93,29.97,10.0,East,4.6,-,N/A,,Clear,80,2013-05-07 16:56:00
7:56 AM,73.9,61.9,66,29.98,10.0,Calm,Calm,-,N/A,,Clear,0,2013-05-07 17:56:00
8:56 AM,72.9,65.8,79,29.99,10.0,Calm,Calm,-,N/A,,Partly Cloudy,0,2013-05-07 18:56:00
9:44 AM,78.8,66.2,65,30.04,10.0,Calm,Calm,-,N/A,,Mostly Cloudy,0,2013-05-07 19:44:00
9:56 AM,79.0,65.8,64,29.99,10.0,Variable,4.6,-,N/A,,Mostly Cloudy,0,2013-05-07 19:56:00
10:14 AM,78.8,66.2,65,30.04,10.0,South,8.1,-,N/A,,Partly Cloudy,190,2013-05-07 20:14:00
10:56 AM,77.0,66.2,69,30.04,10.0,WNW,10.4,-,N/A,,Scattered Clouds,300,2013-05-07 20:56:00
11:08 AM,75.2,66.2,73,30.03,10.0,WNW,10.4,-,N/A,,Mostly Cloudy,290,2013-05-07 21:08:00
11:56 AM,79.0,66.9,66,29.98,10.0,WNW,9.2,-,N/A,,Scattered Clouds,300,2013-05-07 21:56:00
12:56 PM,79.9,68.0,67,29.96,10.0,West,9.2,-,N/A,,Clear,270,2013-05-07 22:56:00
1:56 PM,81.0,66.9,62,29.95,10.0,WNW,8.1,-,N/A,,Clear,290,2013-05-07 23:56:00
2:56 PM,79.9,64.9,60,29.94,10.0,West,8.1,-,N/A,,Clear,260,2013-05-08 00:56:00
3:56 PM,79.9,64.9,60,29.94,10.0,WNW,8.1,-,N/A,,Clear,300,2013-05-08 01:56:00
4:56 PM,78.8,64.4,61,29.99,10.0,WNW,8.1,-,N/A,,Clear,300,2013-05-08 02:56:00
5:56 PM,75.9,63.9,66,29.95,10.0,West,8.1,-,N/A,,Clear,280,2013-05-08 03:56:00
6:56 PM,72.0,63.9,76,29.96,10.0,WNW,5.8,-,N/A,,Clear,300,2013-05-08 04:56:00
7:56 PM,70.0,65.8,87,29.98,10.0,Calm,Calm,-,N/A,,Clear,0,2013-05-08 05:56:00
8:56 PM,66.9,63.9,90,29.99,10.0,East,5.8,-,N/A,,Clear,80,2013-05-08 06:56:00
9:56 PM,65.8,63.9,93,29.99,10.0,ENE,4.6,-,N/A,,Clear,70,2013-05-08 07:56:00
10:56 PM,65.8,63.9,93,30.00,10.0,ENE,4.6,-,N/A,,Clear,60,2013-05-08 08:56:00
11:56 PM,65.8,64.9,97,29.99,10.0,East,4.6,-,N/A,,Clear,80,2013-05-08 09:56:00